Terug naar catalogus

STARLINK-35755

ActiefCommunicatieVLEO
NORAD 67163·PAYLOAD·🇺🇸 United States

Gelanceerd Dec 17, 2025 vanaf Cape Canaveral Space Force Station

Loading…

Volgende Passages (komende 24 uur)

TLE

VersSource: CelesTrak SupGP

Epoch: Sep 15, 2026, 03:09 UTC

1 67163C 25303A   26258.13173611  .00035922  00000+0  13007-2 0  2583
2 67163  43.0033 320.8375 0001809 265.1718 252.7121 15.27569574    16

Volg STARLINK-35755 in realtime met AllMySat

Download on the App Store